Location: 相模原市立博物館
(35.5593°N, 139.3931°E)
Time: 05:59:20
(UTC+09:00)

CAS-4A - Visible Passes

Search period start: 22 January 2022 00:00
Search period end: 01 February 2022 00:00
Orbit: 529 x 538 km, 43.0° (Epoch: 21 January)

Date Brightness Start Highest point End Pass type
(mag) Time Alt. Az. Time Alt. Az. Time Alt. Az.
22 Jan ? 05:07:28 38° SSW 05:07:28 38° SSW 05:11:11 10° SSE visible
23 Jan ? 04:57:02 26° S 04:57:02 26° S 04:59:36 10° SSE visible
24 Jan ? 04:46:40 16° S 04:46:40 16° S 04:47:54 10° SSE visible
27 Jan ? 19:34:07 10° SW 19:34:36 13° SSW 19:34:36 13° SSW visible
28 Jan ? 19:22:36 10° SW 19:24:16 23° SW 19:24:16 23° SW visible
29 Jan ? 17:34:19 10° SSE 17:35:38 11° SE 17:36:58 10° ESE visible
29 Jan ? 19:11:08 10° SW 19:13:53 40° SW 19:13:53 40° SW visible
30 Jan ? 18:59:44 10° WSW 19:03:25 71° SW 19:03:25 71° SW visible
31 Jan ? 18:48:23 10° WSW 18:52:27 80° NNW 18:52:53 69° NE visible
